Weather History for Beaumont, TX

Change the Weather History Date:

Monday, February 18, 2013

  Actual Average Record
Temperature  
Mean Temperature 65 °F 56 °F  
Max Temperature 74 °F 66 °F 81 °F (1906)
Min Temperature 55 °F 47 °F 20 °F (1903)
Degree Days  
Heating Degree Days 0 9  
Month to date heating degree days 113 189  
Since 1 July heating degree days 897 1132  
Cooling Degree Days 0 0  
Month to date cooling degree days 6 6  
Year to date cooling degree days 29 17  
Growing Degree Days 14 (Base 50)    
Moisture  
Dew Point 59 °F    
Average Humidity 79    
Maximum Humidity 93    
Minimum Humidity 64    
Precipitation  
Precipitation 1.05 in 0.13 in 2.67 in (1963)
Month to date precipitation 2.60 2.39  
Year to date precipitation 10.82 7.65  
Snow  
Snow 0.00 in 0.00 in T in (1910)
Month to date snowfall 0.0 0.0  
Since 1 July snowfall 0.0 T  
Snow Depth 0.00 in    
Sea Level Pressure  
Sea Level Pressure 29.97 in    
Wind  
Wind Speed 18 mph (South)    
Max Wind Speed 32 mph    
Max Gust Speed 39 mph    
Visibility 9 miles    
Events Rain , Thunderstorm    
T = Trace of Precipitation, MM = Missing Value Source: NWS Daily Summary

Daily Weather History Graph

Daily Weather History Graph

Search for Another Location

Airport:

Trip Planner

Search our weather history database for the weather conditions in past years. The results will help you decide how hot, cold, wet, or windy it might be!

Date:

Astronomy

Feb. 18, 2013 Rise Set
Actual Time 6:52 AM CST 6:07 PM CST
Civil Twilight 6:28 AM CST 6:31 PM CST
Nautical Twilight 6:00 AM CST 6:59 PM CST
Astronomical Twilight 5:32 AM CST 7:27 PM CST
Moon 12:06 PM CST (2/18) 1:21 AM CST (2/18)
Length of Visible Light 12h 03m
Length of Day
11h 14m
First Quarter, 58% of the Moon is Illuminated
Feb 18
First Quarter
Feb 25
Full
Mar 4
Last Quarter
Mar 11
New
Mar 19
First Quarter

Hourly Weather History & Observations

Time (CST) Temp. Dew Point Humidity Pressure Visibility Wind Dir Wind Speed Gust Speed Precip Events Conditions
12:53 AM 61.0 °F 51.1 °F 70% 30.09 in 10.0 mi SSE 19.6 mph - N/A   Overcast
1:53 AM 61.0 °F 52.0 °F 72% 30.07 in 10.0 mi SSE 16.1 mph 23.0 mph N/A   Overcast
2:53 AM 61.0 °F 52.0 °F 72% 30.05 in 10.0 mi SSE 16.1 mph - N/A   Overcast
3:53 AM 61.0 °F 53.1 °F 75% 30.03 in 10.0 mi SSE 16.1 mph - N/A   Overcast
4:53 AM 62.1 °F 54.0 °F 75% 30.02 in 10.0 mi SSE 17.3 mph 21.9 mph N/A   Overcast
5:53 AM 62.1 °F 55.0 °F 78% 30.01 in 10.0 mi SSE 17.3 mph - N/A   Overcast
6:53 AM 63.0 °F 55.0 °F 75% 30.00 in 10.0 mi SSE 23.0 mph 28.8 mph N/A   Overcast
7:53 AM 64.0 °F 55.0 °F 73% 30.01 in 10.0 mi SSE 18.4 mph - N/A   Overcast
8:53 AM 64.9 °F 55.9 °F 73% 30.02 in 10.0 mi SSE 18.4 mph 26.5 mph N/A   Overcast
9:53 AM 66.9 °F 57.9 °F 73% 30.03 in 10.0 mi SSE 19.6 mph 27.6 mph N/A   Overcast
10:53 AM 69.1 °F 57.9 °F 68% 30.02 in 10.0 mi South 18.4 mph 27.6 mph N/A   Mostly Cloudy
11:53 AM 70.0 °F 60.1 °F 71% 30.01 in 10.0 mi South 23.0 mph 32.2 mph N/A   Overcast
12:53 PM 70.0 °F 60.1 °F 71% 29.97 in 10.0 mi SSE 19.6 mph 31.1 mph N/A   Overcast
1:53 PM 73.9 °F 61.0 °F 64% 29.93 in 10.0 mi South 24.2 mph 35.7 mph N/A   Mostly Cloudy
2:53 PM 71.1 °F 60.1 °F 68% 29.90 in 10.0 mi South 25.3 mph 35.7 mph N/A   Overcast
3:53 PM 70.0 °F 61.0 °F 73% 29.88 in 10.0 mi South 20.7 mph 32.2 mph N/A   Overcast
4:53 PM 68.0 °F 61.0 °F 78% 29.89 in 10.0 mi South 17.3 mph 27.6 mph 0.00 in Rain Light Rain
5:05 PM 68.0 °F 60.8 °F 78% 29.88 in 10.0 mi South 18.4 mph 25.3 mph 0.00 in Rain , Thunderstorm Light Thunderstorms and Rain
5:53 PM 66.0 °F 62.1 °F 87% 29.88 in 9.0 mi South 16.1 mph 26.5 mph 0.00 in Rain Light Rain
6:49 PM 66.2 °F 62.6 °F 88% 29.92 in 1.5 mi SSW 15.0 mph 21.9 mph 0.08 in Rain Heavy Rain
6:53 PM 66.0 °F 64.0 °F 93% 29.92 in 1.0 mi SSW 12.7 mph 21.9 mph 0.29 in Rain Heavy Rain
7:01 PM 66.2 °F 62.6 °F 88% 29.92 in 2.0 mi SW 19.6 mph 25.3 mph 0.19 in Rain Rain
7:07 PM 64.4 °F 62.6 °F 94% 29.92 in 9.0 mi SSW 21.9 mph 32.2 mph N/A Rain Light Rain
7:18 PM 66.2 °F 62.6 °F 88% 29.92 in 10.0 mi SW 16.1 mph 26.5 mph 0.19 in   Overcast
7:28 PM 66.2 °F 62.6 °F 88% 29.92 in 10.0 mi SSW 16.1 mph 28.8 mph 0.19 in Rain Light Rain
7:44 PM 66.2 °F 62.6 °F 88% 29.93 in 8.0 mi SW 12.7 mph - 0.20 in Rain Light Rain
7:53 PM 66.0 °F 63.0 °F 90% 29.93 in 10.0 mi North - - 0.20 in Rain Light Rain
8:35 PM 66.2 °F 64.4 °F 94% 29.94 in 4.0 mi West 13.8 mph 29.9 mph 0.27 in Rain Light Rain
8:53 PM 66.0 °F 63.0 °F 90% 29.94 in 10.0 mi SW 15.0 mph 19.6 mph 0.27 in   Overcast
9:53 PM 64.9 °F 63.0 °F 93% 29.95 in 10.0 mi SW 16.1 mph - N/A   Overcast
10:53 PM 64.9 °F 63.0 °F 93% 29.98 in 8.0 mi SW 9.2 mph - N/A   Partly Cloudy
11:19 PM 60.8 °F 55.4 °F 82% 30.04 in 8.0 mi NW 21.9 mph 39.1 mph 0.00 in Rain , Thunderstorm Light Rain
11:39 PM 55.4 °F 53.6 °F 94% 30.05 in 4.0 mi NNW 13.8 mph 23.0 mph 0.25 in Rain Rain
11:53 PM 55.0 °F 52.0 °F 89% 30.05 in 6.0 mi North 11.5 mph - 0.26 in Rain Heavy Rain